Home   Weather   Stockerau   Past weeks

Flag for Austria Past Weather in Stockerau, Lower Austria, Austria — Yesterday and Last 2 Weeks

Now
36 °F

Clear.


Feels Like: 36 °F
Forecast: 31 / 47 °F
Wind: 2 mph from North

Location: Tulln Airport

Current Time: Feb 25, 2017 at 9:37:55 pm

Latest Report: Feb 25, 2017 at 8:50 pm


Visibility: 15 mi

Pressure: 30.21 "Hg

Humidity: 70%

Dew Point: 27 °F

Location of StockerauLocation

Past Weather in Stockerau — Graph

°F

Stockerau Temperature Yesterday

Maximum temperature yesterday: 55 °F (at 4:50 am)
Minimum temperature yesterday: 41 °F (at 8:50 pm)
Average temperature yesterday: 49 °F

High & Low Weather Summary for the Past Weeks

 TemperatureHumidityPressure
High64 °F (Feb 23, 1:50 pm)100% (Feb 15, 5:50 am)30.69 "Hg (Feb 15, 5:50 am)
Low25 °F (Feb 15, 4:50 am)34% (Feb 23, 1:50 pm)29.47 "Hg (Feb 23, 6:50 pm)
Average41 °F75%30.20 "Hg
* Reported Feb 10 7:50 pm — Feb 25 7:50 pm, Stockerau, Weather by CustomWeather, © 2017

Note: Actual official high and low records may vary slightly from our data, if they occured in-between our weather recording intervals... More about our weather records

Advertising

Stockerau Weather History for the Previous 24 Hours

Scroll right to see more
 ConditionsComfort  
Time TempWeatherWind HumidityBarometerVisibility
7:50 pm
Sat, Feb 25
36 °FPassing clouds.5 mph70%30.21 "Hg16 mi
6:50 pm39 °FPassing clouds.1 mph61%30.21 "Hg16 mi
5:50 pm41 °FPassing clouds.6 mph53%30.18 "Hg37 mi
4:50 pm46 °FPartly sunny.13 mph46%30.18 "Hg37 mi
3:50 pm48 °FPartly sunny.18 mph43%30.18 "Hg31 mi
2:50 pm48 °FPartly sunny.17 mph43%30.21 "Hg31 mi
1:50 pm48 °FPartly sunny.9 mph40%30.21 "Hg31 mi
12:50 pm46 °FPartly sunny.9 mph40%30.21 "Hg31 mi
11:50 am45 °FScattered clouds.13 mph46%30.24 "Hg31 mi
10:50 am45 °FPassing clouds.10 mph46%30.24 "Hg25 mi
9:50 am41 °FPassing clouds.8 mph61%30.24 "Hg25 mi
8:50 am37 °FPassing clouds.10 mph70%30.21 "Hg25 mi
7:50 am34 °FPassing clouds.7 mph81%30.21 "Hg25 mi
6:50 am32 °FPassing clouds.No wind80%30.18 "Hg19 mi
5:50 am32 °FPassing clouds.3 mph80%30.15 "Hg19 mi
4:50 am32 °FPassing clouds.2 mph75%30.15 "Hg16 mi
9:50 pm
Fri, Feb 24
41 °FPassing clouds.16 mph57%30.01 "Hg19 mi
Weather by CustomWeather, © 2017

See weather overviewHow to use our weather pages